sat.trackr.live / text

‹ back to catalog

NETSAT-4

NORAD 46504 · 2020-068U

PAYLOAD ACTIVE UNKNOWN

§ Identity

Operator
Country
GER
Launch date
2020-09-28
Launch site
PLMSC
Launch vehicle
Mass (kg)
RCS (m²)

Purposes: tech_demo

External: N2YO · Heavens-Above · Gunter

§ Orbital elements

Epoch: 2026-09-19T23:40:32.438784Z

Period
93.09 min
Inclination
97.8613°
Eccentricity
0.0004295
Mean motion
15.46852599 rev/d
Perigee alt
423.0 km
Apogee alt
428.9 km
Semi-major
6,804.1 km
B*
2.9625e-4
RAAN
279.0689°
Arg perigee
3.7171°
Mean anomaly
356.4108°
Rev number
33,041

§ Raw data

NETSAT-41 46504U 20068U   26262.98648656  .00014792  00000+0  29625-3 0  99942 46504  97.8613 279.0689 0004295   3.7171 356.4108 15.46852599330417

JSON: /api/v1/satellites/46504 · /tle

For live sub-satellite position, see the globe view (requires WebGL).

§ Visibility from observer

Set your observer location to see the next 7 days of passes ≥ 10°. The values pass through the URL so the page stays shareable.

No JS? Fill the form by hand. The geolocation button needs JavaScript.

§ Radio — SatNOGS DB

ModeDescriptionDownlinkUplink
FSK AX.25 G3RUH Telemetry 435.600 MHz

1 transmitter · refreshed weekly from db.satnogs.org